Theta_e
300 300 300 300 301 301 301 301 301 302 302 302 302 302 302 302 302 303 303 303 303 303 303 303 303 304 304 304 304 304 305 304 306 311 314 315 315 313 310 309 308 309 308 308 316 319 318 319 318 316 314 314 315 317 318 316 317 316 316 316 315 316 317 318 319 318 318 319 319 319 319 319 319 320 321 321 324 331 333 335 341 343 345 347 346 345 347 348
299 300 300 300 300 300 301 301 301 302 301 302 302 302 302 302 302 303 303 303 303 303 303 303 304 304 304 304 304 305 305 305 307 314 317 315 312 312 312 311 308 308 307 311 318 318 317 318 318 316 314 315 315 316 318 316 317 317 317 316 316 318 318 319 318 318 318 318 319 319 319 319 319 320 320 321 323 328 330 335 341 344 345 345 346 346 347 348
299 299 299 299 299 300 300 300 301 301 301 301 301 301 302 302 302 302 302 303 303 303 303 303 303 303 304 304 304 305 304 307 312 317 317 313 312 313 313 312 310 308 308 314 319 317 317 318 317 316 315 315 315 316 317 316 317 317 317 316 317 319 318 319 318 317 318 317 318 319 318 319 319 320 320 321 322 323 325 333 339 342 345 344 344 346 347 348
299 299 299 299 299 299 299 300 300 300 301 301 301 301 301 301 302 302 302 302 303 303 303 303 303 303 304 303 304 304 305 310 317 320 317 313 313 312 312 312 310 307 312 319 318 317 318 318 316 316 315 316 315 316 317 317 317 317 316 317 318 319 318 318 318 317 317 317 318 318 318 318 319 319 320 321 321 322 325 333 338 341 345 343 344 347 348 349
299 299 299 299 299 299 299 299 299 300 300 300 301 301 301 301 301 302 302 302 302 302 303 303 302 303 303 304 304 303 308 315 319 320 315 313 313 311 311 312 310 308 315 320 318 317 318 317 317 315 315 317 315 316 316 317 318 317 317 318 319 319 318 318 318 317 317 317 317 318 318 318 319 319 320 321 320 321 325 332 335 338 343 342 343 347 348 348
299 299 299 299 299 299 299 299 299 299 300 300 300 301 301 301 301 301 301 302 302 302 302 302 302 303 303 304 303 303 310 316 317 318 315 313 312 311 311 312 308 308 315 319 318 317 317 317 317 315 316 316 316 316 316 317 317 316 317 319 319 318 318 318 318 317 317 317 317 318 318 318 319 319 319 320 320 321 322 327 332 335 342 343 342 346 348 348
299 299 299 299 299 299 299 299 299 299 299 300 300 301 301 301 301 301 301 301 301 302 302 302 302 302 303 303 303 307 314 316 314 315 313 313 313 310 311 311 307 309 315 317 316 317 316 316 316 316 316 315 316 317 315 316 317 316 316 318 318 318 318 317 317 317 317 317 318 318 318 318 318 318 319 320 321 320 321 323 327 332 341 343 340 343 347 348
298 298 298 298 298 298 298 299 299 299 299 300 300 300 301 301 301 301 301 301 301 302 301 301 301 302 303 303 306 314 318 317 314 311 308 310 312 311 310 309 307 310 316 316 315 316 315 316 316 316 316 315 316 316 316 316 316 316 316 317 319 318 318 317 317 317 317 317 317 318 318 318 318 318 319 320 320 320 323 325 325 329 338 342 341 343 346 347
298 298 298 298 298 298 298 298 299 299 299 299 300 300 300 301 301 301 301 301 301 301 301 301 301 302 302 302 308 316 316 315 314 307 306 309 311 312 310 309 309 313 316 315 315 315 315 316 315 315 315 315 316 316 317 316 315 317 316 317 317 317 318 317 317 317 317 318 317 317 317 317 318 318 318 319 320 322 324 326 327 329 336 340 343 346 346 346
298 298 298 298 298 298 298 298 298 298 299 299 300 300 300 300 301 301 301 301 301 301 301 301 301 301 302 306 312 316 312 313 314 309 310 312 312 313 314 313 312 314 315 314 315 314 314 315 314 315 314 315 316 315 317 316 316 318 317 318 317 317 318 318 318 318 318 318 317 317 316 317 318 317 318 319 321 323 325 327 327 329 335 339 344 346 346 345
297 297 298 298 298 298 298 298 298 298 299 299 299 300 300 300 300 301 301 301 301 301 301 300 301 301 303 308 313 312 309 312 316 315 314 314 313 314 316 315 314 314 315 314 314 313 314 314 313 314 313 314 315 315 316 316 316 317 318 318 317 318 317 317 318 318 317 316 317 317 316 317 317 317 318 320 322 323 324 326 328 330 334 340 343 344 344 344
297 297 298 298 298 298 298 298 298 298 299 299 299 299 300 300 300 300 300 301 301 301 301 300 301 301 304 309 312 310 310 312 316 318 317 314 315 316 316 315 315 315 315 314 314 313 313 313 313 313 313 314 314 315 316 316 317 316 317 316 316 317 316 317 317 317 317 316 317 317 315 316 316 317 318 319 321 323 324 326 329 329 333 342 343 343 344 343
297 297 298 297 298 298 298 298 298 298 298 299 299 299 299 300 300 300 300 301 301 301 301 301 301 300 305 313 313 309 310 313 315 317 317 315 316 317 316 315 316 316 316 316 315 313 313 312 313 313 314 315 315 316 315 316 316 316 316 315 315 315 315 317 317 317 317 316 317 316 313 314 316 317 318 319 320 322 323 324 327 327 334 340 342 344 344 342
297 298 298 297 298 298 298 298 298 298 298 299 299 299 299 300 300 300 301 301 301 301 301 302 301 302 309 314 311 308 309 313 314 315 317 316 317 317 316 316 316 316 316 316 315 314 313 312 312 313 314 315 316 317 315 316 316 315 315 315 315 314 314 318 318 317 317 315 317 315 312 313 317 318 317 319 319 322 323 323 326 325 333 337 340 344 344 345
297 298 298 297 298 298 298 298 298 298 298 299 299 299 299 300 300 300 301 301 301 302 301 302 302 306 314 314 310 310 307 309 311 313 315 316 316 316 315 316 316 316 316 315 315 314 313 311 312 314 315 315 316 317 315 315 316 316 314 314 315 313 314 318 318 317 316 316 317 315 312 313 318 319 318 320 319 322 322 322 324 323 333 336 337 342 343 345
297 297 298 298 298 298 298 298 298 299 298 299 298 299 299 300 300 300 301 302 303 303 303 307 307 308 315 315 313 313 309 308 309 310 313 314 314 315 315 315 316 316 316 316 314 313 312 312 312 314 315 315 315 316 315 315 315 316 314 313 314 314 314 316 317 318 317 316 317 315 313 314 317 319 319 320 319 322 322 322 324 322 333 336 336 339 339 341
297 297 298 298 298 298 298 298 298 298 298 298 298 299 299 300 301 302 303 303 305 305 306 312 313 310 313 313 313 315 312 311 310 310 311 312 313 314 315 316 317 317 317 316 314 313 313 312 313 314 315 316 315 315 314 313 313 316 315 313 315 315 314 315 316 318 317 316 316 316 315 315 318 319 319 319 319 321 321 322 324 322 332 336 336 336 334 335
297 297 297 298 298 297 297 298 298 298 298 298 298 299 299 300 302 303 306 307 308 309 309 311 312 313 314 312 312 315 315 315 315 312 312 312 312 313 315 316 317 317 317 316 315 314 313 313 314 314 315 315 316 316 314 313 314 315 315 314 314 315 315 315 315 317 317 316 316 316 316 316 317 319 318 319 319 319 321 322 323 322 329 336 336 334 334 336
297 297 297 297 297 297 298 298 298 298 298 298 298 299 301 307 309 309 310 312 312 314 315 313 312 312 313 312 311 315 316 315 316 315 314 313 312 313 315 316 317 317 317 316 315 315 314 314 314 313 314 315 315 316 315 316 317 316 317 316 314 315 315 316 317 317 316 316 316 315 316 316 317 318 318 319 319 318 320 320 322 323 324 333 335 335 337 335
297 297 297 297 297 297 297 297 298 298 298 298 299 303 310 316 318 317 315 314 314 315 314 314 314 312 312 312 312 314 315 315 315 315 315 314 312 313 315 316 317 317 317 316 315 316 314 313 314 313 313 315 315 316 316 317 318 317 317 316 315 315 315 317 317 317 317 315 315 316 316 316 316 317 318 318 319 319 319 320 322 323 321 326 334 336 335 332
297 297 297 297 297 297 297 298 298 297 298 298 300 307 315 315 314 315 314 314 314 314 312 311 313 312 312 312 312 313 314 314 314 315 316 314 313 313 315 316 317 316 317 317 317 316 314 313 314 315 314 315 316 316 317 317 318 318 317 315 314 314 315 317 318 317 317 316 315 316 316 316 317 317 318 318 319 319 319 320 320 322 321 320 329 335 334 331
297 297 296 296 297 297 297 297 297 298 298 297 301 308 313 311 309 310 310 312 312 312 312 312 311 312 312 312 312 312 313 314 314 315 316 315 313 314 315 316 316 316 317 317 317 316 315 314 314 316 315 315 317 318 318 318 319 318 316 315 313 315 316 316 318 317 316 316 315 316 316 316 317 317 318 318 318 319 319 320 319 320 321 320 323 331 334 334
297 296 296 296 297 296 297 298 298 298 297 299 305 309 310 309 309 309 310 312 313 312 312 312 312 312 311 311 312 311 312 314 314 315 316 315 314 314 315 315 315 316 316 316 317 316 315 314 315 316 316 316 317 318 319 319 318 317 316 315 313 315 315 313 317 318 317 316 316 317 316 316 317 317 318 319 319 318 318 319 320 318 319 320 320 325 332 334
296 296 296 297 296 297 298 297 297 298 297 300 306 307 308 308 308 310 312 314 314 314 313 312 312 313 313 313 313 311 311 312 312 315 316 315 316 315 315 316 315 315 316 316 317 316 315 316 316 315 316 317 317 318 318 317 316 316 317 316 315 316 315 314 316 318 317 317 317 317 315 314 317 317 317 318 318 318 318 318 320 319 318 320 319 321 327 332
296 296 296 296 297 297 296 298 301 303 301 301 305 306 307 308 308 309 313 316 315 314 313 313 313 313 314 313 313 312 312 311 310 313 315 315 316 316 315 316 315 314 316 317 317 315 315 317 318 316 316 316 316 316 317 316 315 316 317 316 316 316 316 316 317 317 315 314 317 316 312 313 316 317 317 318 318 318 318 318 319 319 318 319 320 321 324 330
296 296 296 296 297 296 299 307 308 305 304 305 308 307 307 309 308 308 313 316 315 314 313 313 313 313 313 313 313 313 313 312 310 311 314 315 316 316 315 315 315 314 315 316 317 316 315 317 317 316 316 315 315 315 316 317 315 313 317 317 317 317 316 316 315 314 313 312 317 318 313 313 314 316 318 318 319 318 318 319 318 319 319 319 319 319 321 326
296 296 296 296 297 296 303 311 307 302 305 309 309 306 307 310 307 308 315 315 313 314 314 313 314 312 313 315 314 313 314 313 312 311 313 314 315 316 315 314 314 313 316 316 315 316 317 317 317 316 316 315 314 314 315 317 315 313 316 317 317 317 315 315 315 314 314 314 316 318 315 313 312 315 318 319 319 318 319 319 318 320 320 321 321 320 320 321
296 296 296 297 297 296 300 303 301 303 309 310 308 306 307 308 306 311 318 316 314 315 314 314 313 311 313 314 313 314 314 312 312 312 312 313 314 316 315 315 314 313 315 316 314 316 318 317 317 316 315 315 314 315 315 316 315 315 316 316 316 316 315 315 315 314 315 314 313 314 315 314 312 314 318 318 318 318 318 320 321 323 323 324 324 323 322 320
296 296 297 296 296 297 297 297 298 304 308 306 305 306 306 305 308 315 317 315 315 313 313 313 312 312 313 313 313 314 314 313 313 312 311 312 313 315 315 315 316 315 315 317 315 316 318 317 318 316 315 315 315 315 316 316 315 315 316 316 315 316 315 315 315 314 314 313 312 313 314 313 312 314 316 316 317 318 320 324 327 327 326 326 325 325 325 321
296 296 297 296 298 302 301 298 299 302 304 303 303 306 307 307 313 316 313 313 314 312 313 312 311 313 313 313 314 314 313 314 314 312 311 311 312 314 315 315 316 316 315 316 315 316 317 317 317 316 316 316 315 316 316 316 316 316 315 315 315 315 315 315 315 313 313 312 312 314 314 312 312 314 315 318 321 324 326 327 328 328 328 328 327 326 325 324
296 296 296 296 299 302 302 304 305 303 301 301 302 305 308 312 315 315 313 313 312 312 312 312 312 312 312 313 314 313 313 313 314 313 312 311 311 313 314 315 315 316 316 315 315 315 316 316 316 316 316 317 316 316 317 316 316 316 315 315 313 313 314 314 314 314 313 312 313 314 314 313 312 313 317 321 324 325 326 327 327 327 327 328 330 328 326 329
296 296 296 296 297 298 303 310 308 304 302 300 302 307 311 313 312 312 313 311 311 312 311 312 312 311 312 313 313 313 313 313 314 314 312 311 311 312 313 313 314 315 314 315 315 315 315 316 315 316 316 317 316 315 316 316 316 316 315 314 312 312 313 314 314 314 313 313 314 315 315 313 313 316 321 324 324 325 326 327 327 326 326 328 330 330 330 334
296 296 296 297 297 297 303 307 304 302 301 299 305 311 313 313 310 311 312 310 311 312 310 312 311 310 312 312 313 314 313 313 314 313 312 311 311 312 312 313 315 314 314 315 315 314 315 316 315 315 315 316 316 315 315 315 315 315 314 313 312 312 314 315 315 314 314 314 314 316 316 314 314 318 324 325 324 326 327 328 329 329 330 331 332 331 332 334
296 297 297 297 299 300 302 304 303 302 300 303 309 312 311 312 311 310 311 310 311 311 310 311 310 310 311 312 314 314 313 314 314 313 313 311 312 313 312 312 314 315 315 315 315 314 314 316 316 315 315 316 316 315 315 315 315 315 314 313 312 312 313 315 314 314 315 314 314 316 316 314 314 320 324 325 324 326 327 328 330 330 332 334 334 333 332 332
296 297 298 300 303 305 305 305 304 301 303 309 312 310 310 310 310 310 310 310 310 309 310 310 310 310 310 311 313 314 315 315 314 313 313 313 313 313 313 313 313 315 315 314 315 315 314 314 316 316 317 316 315 315 316 315 315 315 315 314 313 313 314 313 314 316 317 316 315 315 316 316 318 323 325 325 325 327 328 329 330 331 332 333 334 334 334 332
299 301 302 303 306 306 305 307 305 301 307 314 312 309 310 309 309 310 310 310 309 308 309 309 309 309 310 311 312 313 315 316 314 314 314 313 313 314 315 314 314 315 315 314 314 315 314 314 316 316 317 316 316 317 316 315 315 315 315 313 314 315 315 314 314 315 317 316 314 314 315 316 319 323 325 325 326 328 328 329 330 331 332 333 333 333 333 333
302 308 309 310 309 305 303 306 304 302 308 314 311 310 309 308 310 309 309 310 309 308 308 308 309 309 310 311 312 313 314 315 315 314 314 314 313 314 315 315 315 315 315 315 315 315 315 314 315 316 316 316 317 317 316 316 316 315 314 315 315 316 315 315 315 315 316 316 314 313 314 314 317 322 325 325 326 328 328 328 330 330 331 332 333 333 332 333
305 311 313 313 310 303 300 303 303 305 310 312 311 310 309 308 309 308 309 309 308 308 308 308 310 310 310 312 312 313 314 315 316 314 314 314 314 315 315 315 316 315 315 315 314 316 316 314 315 316 315 316 316 316 315 316 316 315 316 316 316 314 314 315 314 315 316 316 315 314 314 315 319 322 325 326 327 329 329 328 328 329 330 331 332 332 332 333
307 312 314 312 310 304 299 301 305 308 310 309 309 309 308 308 308 309 309 308 308 307 307 308 310 310 311 311 312 313 313 314 315 315 314 314 316 318 316 316 316 315 316 315 314 316 318 315 315 316 316 316 315 314 313 314 315 315 315 316 316 315 315 315 315 315 315 315 316 314 314 319 323 324 325 327 328 330 330 328 328 329 329 330 331 331 331 332
310 314 314 312 311 308 301 302 309 311 308 308 309 308 307 307 308 309 309 309 308 308 309 310 310 310 311 311 312 313 313 313 314 315 315 316 318 318 317 317 317 316 316 316 315 316 318 317 316 316 316 315 315 315 314 314 315 314 314 314 315 315 315 316 317 316 315 316 316 315 316 322 325 325 326 327 328 329 329 328 328 329 330 330 329 330 330 330
312 314 314 312 312 311 306 307 312 311 308 309 309 307 308 309 309 310 310 309 309 309 310 310 310 311 312 312 312 312 312 313 313 314 315 318 319 319 318 318 318 319 318 316 316 316 317 318 316 316 317 315 315 316 315 315 316 315 314 313 314 315 315 315 316 315 315 316 317 316 318 323 325 324 326 327 328 328 328 328 329 329 330 329 329 328 329 329
313 314 314 312 311 312 312 312 314 311 309 310 310 309 310 310 310 312 311 310 309 310 311 309 310 311 312 312 312 312 312 313 313 314 315 318 319 319 319 319 319 320 318 316 317 318 318 318 316 316 318 317 316 318 317 317 318 316 316 316 315 315 314 314 316 317 316 315 317 316 318 323 325 324 325 327 328 329 328 329 329 329 328 327 326 326 326 327
313 315 315 312 311 314 314 313 312 312 311 311 311 310 310 310 310 310 310 310 310 310 311 310 310 311 311 312 312 312 313 313 313 314 316 318 319 319 319 319 319 318 318 318 319 318 318 318 317 317 318 317 317 318 318 317 317 317 317 317 317 316 316 316 317 319 318 315 317 318 319 323 325 324 326 328 328 328 327 327 327 327 325 324 323 323 324 325
313 314 314 313 312 314 315 312 310 310 311 311 311 310 309 310 311 310 310 310 310 310 311 311 311 311 311 312 312 312 313 313 313 314 316 318 319 318 319 319 319 318 319 321 321 320 317 318 318 317 318 318 318 318 320 318 316 316 317 319 319 317 318 319 317 319 319 316 316 318 320 324 325 324 326 327 326 326 325 324 323 323 323 322 321 321 322 322
314 313 314 314 313 314 315 313 311 310 311 311 311 311 310 310 310 310 310 310 311 311 311 311 311 311 311 311 311 311 312 313 314 314 315 317 318 318 318 319 319 320 321 321 322 320 317 319 319 318 318 319 319 318 320 320 318 318 319 320 321 319 318 320 318 318 319 317 317 318 321 324 324 324 326 325 324 323 323 322 321 320 321 321 320 319 320 320
314 313 314 314 314 314 313 312 311 310 310 310 310 310 310 310 310 310 310 310 310 310 311 311 311 311 310 311 311 310 311 312 313 314 314 316 317 317 318 319 318 319 319 319 320 319 319 320 320 320 320 320 319 318 318 318 319 321 322 321 321 321 321 322 319 318 319 318 319 321 323 325 325 324 325 325 322 321 320 319 319 319 320 320 319 318 318 319
313 312 312 313 313 313 312 311 310 311 310 310 309 309 310 310 310 309 309 310 310 310 310 310 310 310 310 311 312 312 311 311 312 313 313 314 316 316 317 318 317 316 317 319 320 320 320 321 321 321 321 320 319 319 317 318 319 321 322 322 323 323 324 324 321 321 322 319 319 322 324 326 325 324 323 322 320 318 317 317 317 317 318 319 319 318 318 318
312 312 313 313 312 311 311 310 310 310 309 309 310 310 310 310 310 310 310 310 310 310 310 310 309 310 310 311 312 312 312 312 311 313 313 313 315 315 316 317 316 316 317 318 319 320 320 320 321 321 320 320 320 319 318 318 319 320 321 321 322 324 324 324 324 325 324 322 322 324 326 325 323 321 319 319 318 316 315 315 315 315 316 317 318 318 317 316
312 312 312 312 311 311 310 310 310 310 310 309 309 310 310 310 310 310 310 310 310 310 310 311 310 309 309 310 311 311 312 312 312 314 314 314 315 315 315 316 316 315 317 318 319 319 318 318 321 321 320 320 320 319 318 317 318 319 319 319 320 322 323 322 322 323 322 323 324 325 324 321 318 317 316 316 317 316 314 314 313 313 314 314 315 316 315 314
312 313 311 311 311 310 309 309 310 310 309 309 309 309 310 310 310 310 309 310 311 310 310 310 310 309 309 310 310 311 312 313 313 314 314 314 314 314 315 316 315 314 316 317 318 318 316 317 320 320 319 319 320 319 318 318 319 319 318 317 318 320 321 320 320 320 321 323 323 323 323 319 315 315 315 314 315 314 312 311 311 311 311 311 312 312 312 311
312 313 312 311 309 309 309 309 310 309 307 308 309 308 309 309 309 309 309 309 310 310 309 310 310 310 310 310 311 311 311 312 313 313 313 312 313 312 313 315 314 314 315 316 316 316 316 317 319 319 318 319 319 319 319 319 320 319 317 315 316 317 319 319 319 317 318 321 321 322 322 319 314 314 313 312 312 312 310 309 309 308 308 308 309 309 309 309
312 311 310 311 308 307 308 308 308 309 307 308 309 309 309 309 309 309 308 308 309 310 309 309 310 310 310 310 311 311 310 310 311 311 311 311 311 311 312 313 313 313 315 317 316 316 315 315 316 318 317 318 319 320 319 320 320 319 315 313 314 315 316 317 317 315 315 317 318 320 320 317 315 314 313 311 310 309 308 307 307 307 307 306 307 307 307 308
Wind_Speed
4 3 4 4 5 6 6 6 6 6 7 7 7 6 5 5 5 5 5 5 5 5 5 6 6 6 6 7 7 7 8 9 8 7 10 9 10 11 8 8 8 11 13 12 13 14 13 13 13 11 11 10 11 12 10 10 10 8 7 6 6 7 4 2 1 3 3 3 6 3 3 4 5 4 4 3 8 6 4 6 4 5 5 9 10 17 22 23
5 4 4 4 5 6 6 6 7 7 7 7 8 7 7 6 6 6 6 6 6 6 6 7 7 7 7 8 8 9 9 8 6 7 12 12 11 8 7 9 10 12 15 15 15 16 14 14 14 13 12 10 11 10 9 10 11 9 7 5 8 6 1 5 5 6 5 4 5 4 4 4 6 4 4 6 4 5 7 9 8 7 9 11 15 18 20 22
5 5 4 4 5 6 6 7 7 7 7 8 8 8 8 7 7 7 7 7 6 7 7 7 8 8 8 8 9 10 10 8 8 10 12 10 8 7 6 9 11 12 14 14 14 15 12 12 13 13 13 11 10 9 9 10 10 11 8 6 8 4 4 3 3 3 4 7 6 5 5 6 7 4 5 7 5 8 9 8 9 10 11 13 16 18 20 23
5 5 5 5 5 6 7 7 7 7 7 7 8 8 8 8 8 8 8 7 7 7 7 7 8 8 8 8 9 10 11 10 8 9 10 8 6 6 7 10 12 13 16 12 12 14 11 10 12 13 13 10 10 10 9 10 9 10 9 9 6 5 5 2 1 3 4 7 8 7 6 7 6 5 7 7 7 9 7 8 7 9 12 14 16 18 20 21
6 6 5 6 6 6 7 7 7 8 8 7 8 8 8 8 9 9 8 8 7 7 7 7 8 8 8 8 9 10 10 6 4 9 9 6 4 4 7 10 13 17 18 11 12 14 11 11 12 13 13 10 10 9 10 13 10 8 8 13 10 6 5 1 1 3 4 7 9 8 8 7 6 7 9 8 9 6 3 6 5 6 11 15 15 17 19 20
7 6 6 6 6 7 7 7 8 8 8 8 8 9 9 8 9 9 9 8 7 7 7 7 7 8 7 6 8 8 6 3 5 7 9 6 2 2 6 12 16 19 16 9 12 14 12 13 13 14 12 10 9 9 11 14 12 9 8 12 13 9 8 4 3 5 5 9 9 8 8 7 8 9 8 9 9 6 3 3 4 4 9 14 16 17 18 20
7 7 7 7 7 7 7 8 8 8 9 9 9 9 9 9 9 10 9 8 7 7 7 6 7 7 6 6 7 7 12 9 3 7 8 7 3 2 8 12 16 18 13 10 13 14 13 15 15 14 11 9 9 10 10 11 13 10 9 10 9 9 11 10 8 8 8 10 10 10 10 9 10 9 7 8 10 7 2 2 5 6 9 13 15 17 17 18
7 7 8 7 7 8 8 8 8 8 9 10 10 10 10 10 10 11 10 9 8 8 7 6 7 6 6 5 6 10 14 9 6 8 7 9 7 6 10 13 15 14 12 13 13 13 14 14 15 13 10 8 7 9 8 8 12 13 12 10 7 8 10 11 10 10 10 10 10 11 12 10 11 11 8 10 11 7 2 3 7 8 10 12 13 15 15 16
7 8 8 8 8 8 8 8 8 8 9 10 11 10 10 11 11 11 10 9 9 8 7 6 6 6 6 4 6 10 7 5 6 9 5 8 9 9 11 13 14 12 11 13 12 12 13 13 15 12 9 7 4 8 9 8 8 9 13 12 10 10 10 11 11 11 11 10 10 10 11 11 11 10 10 14 11 3 3 6 7 9 11 11 12 14 13 13
7 8 8 8 8 8 8 7 8 8 9 10 10 10 11 11 11 11 11 10 9 9 7 6 6 5 4 4 8 8 3 4 3 6 4 8 11 12 12 12 13 12 11 11 11 12 12 10 11 9 9 8 5 7 11 10 5 3 9 12 12 12 11 11 11 11 11 11 11 11 11 12 11 8 9 13 9 3 5 7 8 10 11 10 11 12 11 10
8 8 9 9 8 8 7 7 8 8 9 9 10 10 11 11 12 12 11 10 9 9 8 6 6 5 3 5 11 7 2 2 1 3 6 10 12 13 12 12 12 11 10 10 11 11 10 8 6 7 6 6 7 8 11 12 8 6 7 9 12 14 14 13 12 12 10 10 11 12 12 12 11 9 12 11 8 6 7 7 9 10 11 11 12 11 12 12
9 9 9 9 9 8 7 8 8 8 9 9 10 10 11 11 12 13 12 11 9 9 8 6 6 5 4 9 14 9 3 2 4 5 9 12 12 11 11 13 11 9 8 8 10 9 9 7 8 11 5 3 6 6 8 12 12 9 8 10 11 13 14 15 15 12 11 9 7 8 9 11 12 12 18 14 7 7 8 9 9 10 10 10 13 13 14 15
10 10 10 10 9 8 8 8 8 9 9 9 10 10 11 11 11 12 11 10 9 9 7 7 7 4 5 9 11 9 5 4 6 7 11 13 12 11 11 12 10 8 6 6 7 8 9 6 9 13 8 6 7 1 2 8 10 10 10 10 9 10 12 15 15 10 11 8 4 5 6 10 13 16 23 18 10 9 10 12 11 11 9 11 12 12 14 17
11 11 11 11 10 8 8 8 8 9 9 9 10 10 11 10 11 11 11 10 9 9 7 7 6 2 6 9 6 10 9 6 7 10 12 13 13 11 11 11 9 8 6 5 4 6 8 7 9 11 9 10 7 1 5 8 7 9 10 8 8 8 7 11 12 8 8 6 7 9 7 9 10 17 23 15 10 11 12 13 13 13 12 15 11 11 12 16
12 12 12 12 10 8 8 8 9 9 9 9 10 11 10 10 10 9 10 9 8 8 6 5 4 3 7 10 7 10 11 9 11 12 13 14 13 12 11 11 9 8 7 5 4 5 6 7 9 10 10 11 8 5 8 8 7 8 8 7 8 7 4 10 11 9 7 5 9 11 7 8 9 10 16 12 10 12 13 14 14 15 12 18 12 11 10 12
12 13 13 12 11 9 8 8 9 10 10 10 10 10 10 9 9 9 9 7 6 7 3 2 2 4 7 6 7 6 7 12 14 14 15 14 14 12 12 11 9 9 8 6 5 5 6 8 11 11 9 9 8 8 7 7 7 7 7 8 7 8 7 7 10 11 7 2 8 10 7 9 9 6 12 9 11 13 14 15 15 17 10 20 13 10 8 9
13 13 13 12 11 9 8 8 9 10 10 10 10 9 9 9 9 9 8 6 5 4 2 2 2 6 8 4 7 7 8 10 11 16 17 16 15 11 11 12 11 10 9 7 6 6 8 10 10 8 9 7 7 8 8 7 7 7 8 8 8 8 6 4 8 10 7 5 8 9 8 11 10 3 9 9 12 13 16 16 15 18 11 18 13 9 9 13
13 13 13 12 11 10 8 8 9 10 10 9 9 8 9 9 9 9 7 4 1 1 3 6 6 6 9 10 7 5 10 10 9 14 15 16 16 12 12 13 11 11 10 9 9 9 9 10 9 7 7 8 8 8 8 8 7 7 8 8 8 8 8 7 4 8 8 7 7 8 8 11 13 8 5 10 11 13 16 16 17 19 13 17 15 12 14 16
13 13 13 12 11 10 9 8 9 10 9 8 7 7 8 8 8 7 4 4 6 5 3 7 12 4 1 10 7 4 9 10 10 12 13 15 17 15 14 12 12 13 12 9 10 12 10 9 8 7 7 9 11 11 11 11 7 8 7 6 9 8 8 9 3 6 4 6 7 9 9 11 13 13 13 13 12 12 14 16 16 17 17 14 16 12 11 12
13 13 12 12 11 10 9 8 9 9 8 6 4 5 7 6 5 3 5 11 16 13 9 6 14 8 1 6 7 7 8 10 10 11 12 14 17 17 16 14 13 13 11 7 8 11 10 7 8 9 9 11 13 13 15 13 6 8 8 6 8 8 7 7 4 4 2 6 8 9 11 11 13 12 13 15 12 12 13 16 16 16 20 16 16 17 14 15
13 12 12 12 11 9 9 8 9 9 8 4 1 3 6 6 4 2 1 11 17 17 15 10 12 12 8 4 6 7 8 11 12 11 12 14 17 17 16 16 13 10 11 10 7 8 9 8 9 11 12 12 11 12 15 11 5 6 9 8 8 9 9 6 5 4 3 5 8 10 11 12 12 12 12 15 14 11 12 15 17 18 21 20 16 19 19 19
12 12 12 11 10 9 9 9 9 8 7 3 2 5 5 5 4 5 6 10 12 14 15 12 11 13 11 8 8 6 8 12 13 13 14 15 17 16 15 16 12 9 11 11 7 6 8 9 11 12 11 8 7 7 9 8 6 8 9 8 9 8 9 6 6 5 5 5 8 9 10 10 9 11 12 14 15 13 14 16 18 19 20 20 18 17 18 18
12 12 12 11 9 8 8 9 8 8 6 3 4 5 5 4 3 5 6 9 11 11 12 12 12 12 12 12 13 11 11 13 13 16 17 16 19 17 14 14 12 11 11 11 9 7 7 8 13 14 8 5 6 6 6 7 7 9 8 8 9 10 12 8 5 5 6 6 8 9 9 9 9 11 13 15 17 17 17 18 19 20 20 20 19 17 17 18
12 11 12 10 8 8 8 8 8 7 5 4 6 7 6 4 3 6 7 9 9 7 8 8 9 10 9 9 12 16 17 15 14 16 19 18 18 16 14 13 13 12 11 12 12 11 9 3 5 9 7 7 9 9 8 8 7 10 11 10 9 11 14 8 4 5 5 7 10 11 9 9 11 13 14 15 17 18 18 18 18 20 21 19 18 17 18 19
11 11 11 9 7 7 7 6 5 4 3 3 5 6 5 4 3 5 6 8 7 7 8 7 8 7 8 8 10 14 15 16 18 17 19 20 18 14 12 12 12 11 11 14 12 11 12 3 4 5 6 8 10 9 10 9 7 9 11 14 14 13 14 9 8 9 6 8 11 12 10 7 10 15 15 12 13 15 16 17 18 19 20 18 18 18 19 19
11 11 10 8 6 5 3 3 1 1 3 4 4 5 3 3 4 4 4 6 4 8 9 9 9 6 8 9 10 13 11 14 20 18 18 20 19 14 11 10 10 11 12 12 9 7 10 7 8 8 8 9 12 9 11 11 7 8 8 11 13 12 12 11 12 10 7 7 4 6 8 7 8 12 11 8 11 14 14 14 17 17 18 19 20 20 21 21
11 11 10 7 6 3 1 2 3 1 2 4 4 4 3 3 5 3 3 6 4 8 10 9 7 6 7 8 12 12 4 8 17 18 17 18 19 15 11 10 10 10 9 8 7 6 9 6 6 9 10 9 10 8 10 11 8 9 6 4 8 10 11 11 11 9 8 9 4 5 9 9 8 11 9 8 10 11 10 12 14 12 11 11 12 14 18 21
11 11 9 7 6 4 4 7 7 2 3 6 4 3 3 4 4 3 5 4 3 6 7 7 6 5 5 7 14 11 1 8 12 16 19 18 18 16 11 11 10 10 9 8 7 7 9 11 7 9 10 8 9 8 10 11 10 10 4 2 7 9 10 9 9 9 8 9 8 9 11 9 8 10 12 11 10 10 12 9 6 3 3 5 9 12 14 18
10 10 9 6 6 4 4 7 8 6 6 7 7 4 4 4 2 3 5 2 4 5 4 6 7 7 8 7 13 13 6 6 6 12 22 19 18 16 11 12 12 11 12 10 9 5 7 10 9 10 10 7 9 8 7 9 9 9 5 4 8 8 9 9 9 9 9 9 10 11 11 9 8 8 10 10 7 9 9 1 5 4 4 5 10 14 16 18
10 10 9 6 3 3 3 5 6 9 7 8 8 5 3 3 3 5 5 2 4 6 6 7 7 9 11 9 11 12 11 9 5 11 19 17 19 17 11 11 11 11 11 11 12 8 5 5 5 8 9 9 10 10 10 11 10 6 4 6 9 8 9 9 7 8 9 9 11 14 15 12 8 7 6 3 1 1 1 5 4 2 4 7 9 13 18 18
10 10 9 6 3 2 3 2 3 7 7 8 9 7 5 4 4 6 4 2 2 6 7 7 7 9 11 9 8 12 12 9 9 12 13 12 16 16 11 9 8 9 10 10 12 12 7 7 5 8 11 11 10 10 11 11 11 8 6 7 8 8 8 7 7 8 8 9 10 13 15 13 9 7 1 5 7 7 6 4 2 2 3 9 10 12 14 12
10 10 9 7 5 6 7 6 5 5 7 9 9 8 7 5 6 6 3 3 3 5 5 5 6 6 8 7 6 10 11 9 11 12 11 11 12 12 11 9 7 9 10 9 10 11 10 9 9 10 13 13 9 8 8 8 9 9 8 8 8 7 7 7 7 7 7 9 9 8 9 9 8 4 2 6 6 6 6 6 7 6 5 9 8 6 6 4
9 10 8 6 5 7 10 10 8 7 9 10 8 8 7 5 5 4 3 5 2 3 1 2 3 4 6 7 7 10 10 9 11 12 12 13 11 12 15 14 12 10 8 8 9 9 9 10 11 11 11 13 12 8 7 8 9 10 9 8 8 7 7 7 7 7 7 8 9 7 5 7 7 0 5 6 5 5 8 9 7 6 6 7 3 2 3 5
8 8 6 4 4 7 10 10 9 9 11 10 8 7 6 6 4 2 3 3 4 2 2 3 4 6 8 8 6 9 9 9 13 12 12 13 10 10 13 15 17 13 8 8 8 9 9 8 11 12 9 13 15 12 9 7 9 10 10 9 8 7 6 6 6 5 6 6 8 8 6 7 7 3 5 6 8 8 7 6 2 1 2 4 1 2 3 6
6 4 3 4 6 7 8 9 11 13 13 9 8 6 5 6 5 4 3 2 4 2 3 3 6 8 9 7 4 7 6 5 12 12 10 11 9 9 10 12 16 14 9 8 6 7 11 7 8 12 11 12 14 14 12 10 8 9 9 9 8 7 6 6 6 5 5 5 5 6 5 6 1 7 6 6 8 6 3 3 2 4 4 3 4 5 3 5
2 1 2 4 4 5 8 9 12 16 14 9 8 6 6 5 2 0 1 3 2 2 2 5 7 8 8 7 6 8 6 5 10 10 8 11 11 11 11 10 13 15 11 8 5 5 9 6 6 11 12 11 13 14 13 12 7 5 8 9 8 8 7 6 7 6 5 7 6 5 6 6 3 6 6 6 6 5 5 4 5 6 6 6 7 7 5 4
5 3 3 4 3 3 7 11 14 17 13 9 7 6 4 3 1 3 3 3 2 3 6 6 6 5 8 7 7 9 9 6 9 9 7 10 10 11 13 11 12 16 14 10 6 4 6 5 6 10 11 11 12 13 14 15 11 6 5 7 7 9 8 5 5 6 6 7 7 7 9 8 4 1 2 4 4 4 4 5 6 6 7 7 7 6 5 4
7 5 5 6 4 3 7 12 16 16 11 7 7 7 5 1 1 2 3 3 4 3 6 6 2 3 7 6 6 8 8 6 8 8 7 8 6 4 7 8 9 12 14 13 7 4 5 6 6 10 12 11 11 10 10 14 16 12 6 4 5 7 6 6 6 6 7 7 6 8 11 5 2 2 2 3 3 2 3 5 6 5 6 7 6 5 6 6
10 6 6 8 6 5 9 14 16 13 10 7 6 6 6 3 1 1 2 3 4 4 5 5 2 3 7 6 4 4 6 6 7 7 7 7 4 2 6 4 5 8 11 12 7 4 5 5 5 10 11 9 9 8 8 9 13 13 10 6 6 6 5 5 5 5 7 8 6 8 9 1 5 3 3 4 5 4 3 4 5 5 6 7 7 7 6 6
10 6 6 10 8 8 11 14 13 10 8 6 5 2 3 3 2 1 2 3 5 5 4 4 3 4 6 6 4 3 5 5 5 6 5 4 2 1 4 4 4 6 8 8 7 5 5 6 5 7 8 8 7 8 9 9 10 11 10 8 7 6 5 6 5 5 6 6 6 7 5 1 4 2 2 4 5 4 3 5 5 6 9 8 8 8 8 8
8 6 7 12 10 9 12 11 9 8 6 5 4 1 2 0 1 3 3 3 5 5 4 5 5 4 4 5 5 4 4 5 5 6 4 2 3 2 2 4 4 4 5 7 8 5 4 6 6 4 6 8 6 8 11 10 8 9 9 9 10 8 7 7 6 6 6 5 6 7 2 1 2 3 3 4 4 4 5 6 6 8 10 10 10 12 13 12
8 4 8 14 11 9 9 7 6 7 6 2 1 1 3 1 2 2 3 4 6 5 4 5 5 5 4 5 5 3 4 6 5 5 3 2 3 2 1 4 7 6 6 6 5 1 3 4 6 6 7 6 6 7 7 6 7 8 8 8 9 8 8 8 6 5 7 6 6 8 4 4 1 1 3 4 5 6 8 7 8 10 10 10 12 13 14 14
8 4 8 14 11 7 6 5 5 6 3 1 0 1 3 2 4 2 3 5 5 4 4 4 4 5 4 4 5 3 3 4 4 4 1 6 3 2 2 3 7 8 8 3 2 0 3 4 7 7 6 6 6 7 6 7 7 8 8 8 8 9 8 8 4 3 7 6 4 6 4 3 3 2 3 5 7 9 11 12 11 10 9 9 11 11 12 13
8 8 9 12 9 7 6 4 4 5 3 2 4 4 3 2 3 3 4 5 3 3 4 4 3 3 3 3 5 5 3 3 4 3 1 3 5 2 1 1 4 5 3 2 2 2 5 5 7 7 6 7 7 6 7 8 7 7 8 4 6 8 10 7 2 2 6 8 7 6 3 2 3 3 5 6 7 8 11 13 12 10 9 9 9 10 11 11
7 9 9 11 9 7 6 4 3 2 5 4 4 4 4 3 1 4 4 1 1 3 3 4 3 2 4 4 5 7 4 2 3 2 2 1 5 5 4 4 3 2 5 7 4 4 4 3 4 7 7 6 5 4 4 4 4 6 4 3 7 11 12 6 3 4 6 8 8 5 2 4 3 2 5 6 6 8 10 11 11 10 9 10 10 10 10 10
5 6 6 9 9 9 6 3 4 2 4 5 3 3 5 4 4 3 5 3 2 4 4 4 3 4 6 5 5 8 6 4 4 2 2 3 3 6 5 6 7 7 7 8 6 2 3 3 4 7 8 5 4 3 2 5 7 6 6 2 2 8 9 4 5 6 4 4 2 2 5 5 3 1 4 7 8 9 9 9 9 9 9 10 11 11 11 11
4 4 5 6 7 7 5 6 6 2 2 4 2 2 5 4 4 4 5 4 2 4 5 4 4 5 5 5 5 6 6 5 5 3 3 4 1 4 4 3 5 6 4 4 5 2 5 5 3 5 9 8 4 6 3 4 6 6 7 6 3 3 3 2 5 3 3 4 2 4 8 8 5 3 6 9 9 8 8 9 9 9 9 9 9 10 10 11
4 3 6 5 4 4 4 5 5 3 3 4 2 2 4 4 4 5 4 3 3 4 4 3 5 6 4 4 4 4 6 6 4 2 2 3 3 1 1 1 3 4 1 1 4 3 4 4 4 4 8 12 9 6 6 5 6 3 3 4 6 7 7 4 4 6 5 4 1 5 8 9 7 6 8 9 8 8 8 9 9 9 10 9 8 10 11 11
5 3 5 4 1 3 4 3 3 4 3 3 2 3 4 4 4 4 3 3 4 4 4 3 5 6 3 4 5 3 4 4 2 1 1 3 2 1 1 2 3 4 3 2 3 3 2 3 4 4 5 10 10 5 6 8 7 1 4 6 7 7 8 7 8 10 8 2 5 9 10 9 7 6 8 9 8 9 9 9 10 11 11 10 9 11 12 12
4 2 4 4 3 5 6 4 4 4 3 2 3 3 3 3 4 4 3 3 3 3 4 4 5 4 2 3 5 2 2 2 0 2 2 2 2 1 0 2 1 4 4 1 2 1 1 1 2 2 3 6 6 4 4 7 5 2 6 11 10 8 8 7 9 11 9 4 3 6 9 8 5 6 8 8 8 9 10 11 12 12 12 11 11 12 13 13
3 1 4 5 4 5 5 4 4 4 4 3 3 4 3 3 3 3 2 2 3 3 3 4 3 3 4 4 4 2 3 1 2 1 3 3 2 2 1 2 2 1 0 1 1 1 4 3 1 2 3 3 5 6 3 4 5 5 8 13 11 8 7 7 8 10 10 9 5 1 5 5 3 5 7 8 10 11 11 12 11 11 12 12 13 13 13 13
3 3 6 4 2 4 4 3 3 3 3 1 1 3 3 1 2 3 1 1 4 2 1 3 3 4 5 4 1 0 1 4 5 4 4 4 3 4 3 2 4 4 2 2 3 3 3 4 2 2 2 1 4 5 4 5 6 3 6 9 7 7 7 5 8 11 11 10 6 3 5 5 4 5 6 7 10 10 11 12 11 11 12 13 13 12 12 12
Wind_Direction
292 296 302 306 303 301 304 305 303 304 301 301 299 298 300 298 301 298 303 305 310 317 310 317 311 317 330 324 324 319 319 308 295 270 256 242 228 230 214 207 196 189 189 174 171 181 183 192 196 193 201 199 215 223 202 217 229 224 234 237 240 236 253 308 164 44 4 65 59 17 355 312 308 352 328 271 221 221 220 218 187 156 122 80 111 148 155 158
296 298 306 306 304 305 305 304 302 302 300 300 298 299 298 295 298 295 300 301 305 311 307 314 311 318 327 323 328 322 320 314 288 249 243 236 228 227 211 206 193 187 186 175 178 186 184 189 190 190 201 200 206 210 195 210 220 225 233 233 241 240 4 1 0 20 343 343 12 307 321 314 299 340 319 288 246 219 214 199 193 167 130 113 125 144 155 160
298 301 305 304 306 307 305 306 304 303 301 300 301 299 300 297 295 293 295 297 301 304 304 308 308 316 321 324 327 319 325 318 279 245 229 224 222 221 211 200 191 183 175 175 186 189 189 189 187 193 205 207 201 196 197 203 210 227 239 237 241 279 353 3 351 346 326 327 316 298 325 290 282 320 287 291 296 251 220 182 194 183 148 139 142 151 160 166
295 298 304 303 305 306 305 309 307 308 306 303 304 300 301 299 295 294 291 294 295 295 299 303 306 313 317 324 322 322 333 312 260 207 201 209 215 218 214 196 183 169 158 170 195 194 199 197 192 203 214 217 203 203 213 202 204 222 231 243 260 349 315 264 12 312 315 307 296 303 297 271 290 300 274 282 270 246 200 166 204 197 165 153 151 158 166 172
293 297 303 304 304 305 304 306 306 309 307 304 302 296 296 295 294 292 288 289 289 291 294 297 303 307 314 323 319 326 331 312 166 167 201 210 205 223 218 193 177 164 154 171 204 200 209 206 200 209 222 230 202 205 225 210 214 237 234 252 278 319 284 236 57 287 299 288 283 280 273 289 310 276 267 274 269 294 83 154 217 216 174 158 160 167 171 177
292 295 298 301 302 303 302 304 305 306 306 302 297 293 292 291 291 288 286 287 285 288 289 295 300 301 312 316 316 319 296 290 123 180 219 201 211 241 199 181 173 166 159 188 205 200 211 205 202 209 221 234 206 207 228 211 216 245 240 246 261 266 265 281 276 269 282 276 274 275 282 299 289 268 265 265 266 308 13 172 216 216 180 162 167 175 175 181
290 291 294 298 298 300 301 303 304 303 300 297 292 291 290 289 288 285 286 287 286 290 291 298 298 298 312 311 313 283 255 263 212 214 222 206 228 181 170 171 171 167 167 201 198 195 206 200 205 210 218 233 214 215 224 212 217 239 252 246 244 249 259 272 274 271 270 269 274 278 281 279 268 268 271 264 261 268 295 202 212 205 182 166 172 184 184 185
286 290 295 296 299 300 301 302 302 300 295 292 290 288 288 287 286 286 288 290 291 291 292 300 299 303 311 310 303 264 247 241 213 239 246 219 212 158 159 162 167 167 174 200 194 195 204 200 210 212 223 237 214 213 214 218 224 230 250 257 249 247 254 262 264 262 262 265 269 267 265 262 259 269 279 262 250 249 270 226 209 199 183 169 175 186 188 189
284 290 294 296 301 300 299 301 298 294 291 289 289 287 287 285 285 287 289 291 290 290 293 298 297 301 307 308 293 270 235 171 217 259 255 200 188 154 152 156 161 168 183 198 193 200 204 203 214 219 246 261 217 215 214 222 228 222 239 250 250 249 251 255 255 256 259 259 260 261 258 255 253 264 264 243 238 254 246 223 207 197 187 173 175 182 184 185
284 288 293 298 301 300 300 298 294 291 288 288 288 288 287 283 284 286 288 290 288 289 290 291 293 294 303 299 277 266 154 127 247 260 206 179 174 147 145 159 162 175 191 194 196 206 209 212 220 228 261 268 238 228 220 226 251 245 246 255 257 259 259 255 256 257 259 259 254 256 258 254 250 253 245 224 212 241 240 211 206 203 191 177 170 168 170 162
285 288 293 299 301 302 301 296 292 288 287 288 288 288 287 284 283 283 284 287 286 288 288 287 288 281 282 273 264 265 102 129 192 205 186 174 171 153 155 172 170 182 192 190 202 209 215 229 234 226 240 244 231 232 227 233 259 274 263 264 258 259 258 249 250 250 251 253 244 251 262 255 244 240 243 221 182 212 232 210 205 205 195 174 152 147 162 166
288 291 296 301 303 304 303 296 290 285 286 286 287 287 286 285 283 283 283 284 285 284 283 282 279 277 280 264 252 258 293 211 175 178 179 167 168 164 169 179 177 187 192 193 204 208 216 228 233 230 237 264 232 222 227 231 246 259 256 262 255 248 247 238 235 235 239 242 234 255 265 247 233 227 237 229 188 207 220 215 207 206 197 150 130 145 171 182
292 295 300 303 303 304 304 296 287 283 283 283 287 286 285 286 285 285 284 283 282 278 279 277 275 271 269 267 245 237 245 201 184 177 170 168 170 172 177 182 183 193 200 203 202 203 218 224 231 236 248 264 242 189 258 230 236 249 242 254 257 247 241 226 219 220 235 236 215 249 260 241 224 214 228 223 198 213 214 215 213 207 179 124 127 157 179 188
294 298 303 305 303 304 303 294 286 283 282 284 286 283 286 289 288 288 286 284 283 281 281 273 272 237 245 264 246 236 229 188 190 183 173 176 176 177 180 182 188 196 199 204 200 198 215 224 232 242 245 251 263 299 247 232 226 243 239 233 240 256 239 191 187 198 219 195 188 230 251 257 234 204 211 201 188 217 219 214 217 217 170 133 152 171 184 193
294 299 305 306 304 303 299 291 285 283 283 286 286 287 291 293 292 289 284 285 286 287 285 275 262 191 247 254 234 254 245 211 204 189 183 184 182 183 183 186 190 192 196 197 201 201 211 216 219 234 231 232 261 259 233 228 216 226 237 230 221 241 206 148 162 200 219 164 182 223 239 255 262 208 185 170 193 220 228 220 218 230 169 132 163 178 182 199
292 299 304 305 304 301 298 291 284 284 287 289 290 292 296 297 294 287 284 286 287 289 286 313 267 209 266 253 208 256 240 211 210 197 194 191 191 193 182 183 185 186 196 194 199 205 204 210 215 233 231 213 230 240 234 227 217 211 226 244 225 217 213 163 165 195 223 200 190 218 246 254 256 197 154 169 219 218 229 229 220 236 175 133 165 173 170 214
290 297 303 303 301 299 295 288 284 284 287 291 294 299 302 299 291 286 286 286 290 292 199 191 209 231 258 228 211 236 198 193 200 193 197 196 198 199 179 181 186 185 193 191 202 206 197 207 213 229 237 222 219 229 236 228 219 208 208 244 249 230 240 194 155 166 191 225 216 218 244 261 263 189 137 181 223 222 228 228 221 234 189 139 162 169 178 220
290 296 300 299 298 298 292 286 282 282 288 293 299 302 302 296 291 288 285 291 301 240 234 204 191 242 240 202 214 215 173 171 172 179 191 196 198 200 187 186 184 182 190 194 202 202 194 203 209 218 222 218 221 220 228 232 233 229 208 219 239 234 246 244 167 145 173 212 233 231 233 249 260 265 236 209 210 225 231 226 223 231 206 153 161 186 194 211
291 294 297 295 296 295 288 285 281 282 288 293 306 308 302 296 288 284 253 213 189 202 261 185 189 251 96 174 194 151 152 158 160 170 181 189 192 195 193 190 188 189 198 195 190 194 194 200 207 221 219 208 219 222 228 241 263 282 259 227 237 232 231 238 184 126 166 229 235 243 247 247 250 252 255 240 210 215 233 232 226 229 228 186 160 183 205 215
290 293 293 292 294 292 287 283 279 284 288 293 318 306 298 291 264 227 186 215 221 240 283 215 205 242 77 158 177 159 164 171 180 184 180 182 183 188 192 193 194 198 212 200 173 188 199 212 212 217 226 215 218 224 238 258 298 307 288 263 255 256 248 242 191 144 200 256 247 248 253 255 258 255 257 255 229 206 224 237 230 226 237 220 166 169 197 219
290 291 290 289 292 291 285 281 278 282 285 289 291 263 301 326 304 343 293 244 234 240 262 246 228 243 243 211 174 175 193 194 201 192 177 177 178 185 188 192 198 200 218 210 172 182 201 225 227 221 232 230 226 227 237 263 301 270 266 267 254 249 253 238 165 171 209 242 253 253 252 251 253 255 257 259 251 220 214 233 234 228 235 233 198 181 195 210
290 288 288 288 290 291 282 280 279 278 282 271 220 258 303 339 327 336 327 283 256 241 244 240 235 241 239 224 203 204 212 205 202 188 176 177 183 189 183 189 207 200 205 209 182 181 208 233 236 231 235 234 245 245 232 245 256 250 254 260 257 247 247 222 150 179 218 236 256 255 258 260 255 256 254 252 254 241 222 228 236 233 234 235 224 205 200 204
288 285 287 289 292 291 281 282 281 276 272 238 231 269 291 299 315 326 305 285 272 243 230 227 225 227 223 217 209 206 217 217 202 186 180 183 193 200 190 188 213 211 200 205 201 204 218 224 227 228 221 206 228 237 229 232 237 245 247 247 249 244 248 238 174 190 208 232 266 275 274 270 263 259 256 250 249 246 232 225 231 234 234 235 231 219 208 203
286 284 287 291 296 293 283 287 286 279 268 236 246 259 270 277 307 329 297 275 267 217 197 210 212 214 206 198 197 202 215 223 216 195 182 190 200 203 206 200 211 221 204 201 211 231 248 238 209 216 185 188 220 217 221 235 230 230 238 248 252 250 256 255 227 228 226 235 249 261 269 263 253 248 247 241 234 237 236 227 225 229 232 234 233 227 218 209
285 284 289 292 298 296 295 308 299 284 276 266 260 243 256 279 280 325 300 264 247 180 163 178 184 191 186 179 187 199 213 220 224 210 183 194 204 195 207 209 211 224 207 203 214 237 250 213 135 214 189 201 227 218 214 226 239 229 223 236 248 260 272 270 265 265 257 253 239 234 250 258 247 245 242 235 222 219 223 229 229 225 226 230 231 228 224 218
285 287 292 291 297 301 327 1 338 238 264 255 238 216 236 283 268 315 296 259 226 164 157 174 179 163 172 186 183 192 217 217 217 213 187 196 208 201 209 202 206 228 212 207 215 236 246 192 159 220 222 217 228 222 213 212 237 247 220 227 237 253 270 264 263 263 253 270 259 212 251 272 262 256 242 232 242 227 208 218 231 226 224 227 228 226 224 222
286 289 291 293 300 286 215 239 219 232 274 215 202 225 234 264 268 297 266 253 218 159 148 163 174 142 153 175 176 187 213 174 191 205 193 196 205 209 227 202 193 227 225 221 221 217 238 211 170 218 223 221 226 222 214 207 227 245 222 223 238 243 253 251 251 254 255 269 259 200 244 268 270 272 257 226 240 245 223 217 223 226 235 241 245 238 228 228
288 288 291 297 299 273 230 239 230 252 280 218 208 247 230 244 273 273 248 244 153 146 142 147 150 136 148 171 187 201 100 129 178 195 189 198 201 201 229 222 204 215 212 227 227 178 199 215 201 211 218 221 224 222 213 206 227 251 243 224 254 255 255 255 251 249 252 259 256 235 239 255 258 264 266 240 215 231 242 225 196 203 282 305 302 281 251 239
286 287 293 293 296 292 256 242 217 213 256 239 225 231 219 230 260 244 251 253 137 150 144 142 153 177 183 177 196 213 209 189 203 177 178 197 205 204 231 234 227 221 200 213 236 186 179 212 213 210 218 222 222 225 215 201 221 256 273 235 246 260 255 254 255 253 252 247 255 255 245 254 260 254 263 253 219 227 242 162 71 25 333 310 295 286 268 249
285 288 292 283 300 327 285 268 226 216 235 233 211 194 201 225 237 227 224 214 171 159 146 153 160 179 185 183 193 202 207 203 154 156 177 191 201 213 236 233 238 239 204 202 236 240 161 163 214 225 225 229 226 224 220 215 221 245 274 244 236 239 239 243 247 254 258 244 243 253 251 253 262 258 260 258 81 18 44 76 67 8 304 270 249 249 253 246
285 285 284 270 247 196 218 265 244 228 225 209 187 179 207 218 238 239 191 153 189 153 158 180 168 172 194 211 198 182 197 198 159 169 187 185 192 206 221 221 229 238 215 198 227 237 191 163 205 225 225 234 235 226 219 217 224 229 236 242 236 227 227 232 234 236 247 250 246 250 250 247 250 257 285 70 59 39 43 57 55 60 287 263 237 221 233 235
284 279 276 269 244 193 178 179 192 210 202 186 176 190 220 211 225 242 164 149 204 163 168 184 173 186 208 227 208 175 190 195 173 182 190 187 191 195 208 214 195 211 221 203 211 226 215 206 207 201 211 225 228 221 209 205 220 225 224 233 237 229 223 227 231 227 230 246 253 259 256 248 248 253 89 81 61 39 48 39 15 7 308 267 241 211 212 199
280 274 270 264 235 194 187 189 190 191 179 172 184 210 233 227 217 237 192 174 145 96 132 176 193 224 217 218 200 176 189 190 177 189 193 192 196 194 207 216 203 210 226 210 211 219 216 215 208 198 198 207 217 221 201 193 208 216 218 223 229 229 224 229 236 235 238 244 244 244 247 251 255 219 91 93 78 65 70 57 25 357 313 282 249 167 162 153
273 271 267 238 198 184 187 189 185 180 167 172 204 217 228 241 221 237 242 173 96 90 183 189 225 232 225 234 205 174 202 195 177 189 191 190 202 200 204 214 213 218 227 219 220 222 225 220 206 206 192 187 207 227 225 210 206 211 221 228 233 238 237 241 247 246 252 254 235 216 218 258 257 133 96 74 61 49 55 69 75 90 326 313 36 112 155 157
265 259 233 184 177 179 179 181 181 176 170 187 223 214 208 235 224 207 220 102 90 191 189 186 235 231 218 230 214 193 224 207 186 197 198 194 204 203 200 208 213 216 222 222 215 220 237 236 196 204 207 193 201 221 235 239 221 204 216 229 233 237 238 249 269 283 285 280 251 214 223 262 212 107 96 85 86 78 80 103 103 84 65 44 78 97 117 134
217 173 166 153 164 190 186 189 183 174 178 207 223 212 213 234 270 307 3 28 18 295 268 214 222 234 216 197 196 202 201 201 206 207 206 207 207 205 206 203 204 211 220 224 212 211 231 236 190 197 210 211 209 212 221 237 243 204 208 225 228 231 239 247 256 261 260 263 259 240 242 239 165 91 60 72 100 118 123 105 80 75 76 70 67 70 78 96
161 159 169 150 166 200 187 190 182 176 193 226 224 227 237 224 329 12 22 349 309 299 282 241 198 224 232 200 191 195 178 188 220 214 211 216 207 208 213 205 201 210 219 230 230 220 238 244 198 195 207 215 219 221 215 218 234 234 219 226 225 226 238 248 250 243 236 247 252 244 247 243 212 160 61 71 79 87 95 90 82 78 78 77 68 59 58 54
160 173 173 155 153 162 172 177 174 178 202 232 229 244 269 220 116 3 5 327 298 271 265 262 196 218 247 227 196 191 177 185 211 213 219 216 200 221 232 211 200 211 217 223 224 207 236 242 202 209 219 204 202 226 223 209 217 233 245 247 239 236 230 222 229 237 237 242 246 242 242 252 48 103 138 107 100 105 97 91 85 79 86 97 97 83 64 48
163 172 168 154 137 127 152 160 165 185 209 226 227 229 244 237 132 15 319 296 284 268 262 273 256 226 248 246 220 201 205 208 208 213 219 208 190 329 302 239 202 221 222 223 225 196 224 249 213 211 215 188 182 214 224 203 206 226 242 237 240 254 248 235 235 240 247 244 245 248 241 213 63 91 144 121 123 142 131 104 94 85 86 87 87 81 65 46
174 189 164 154 145 130 143 154 170 200 213 223 241 199 192 222 179 181 273 275 265 264 278 289 256 226 245 259 259 239 231 227 214 214 219 225 211 242 285 264 213 220 223 230 241 212 209 243 224 204 202 192 191 206 217 215 199 209 227 225 224 232 231 239 237 230 253 264 258 256 247 69 32 36 93 91 98 111 110 112 105 84 73 65 59 55 49 44
203 213 161 162 166 144 149 167 191 214 212 217 255 216 125 234 203 170 181 251 265 266 285 294 282 269 270 270 255 231 240 244 222 216 213 259 289 202 203 298 286 240 220 219 228 224 221 231 227 229 216 207 217 220 219 230 224 209 214 219 224 227 227 235 233 219 224 244 263 261 231 113 326 332 52 69 69 78 92 106 101 80 66 57 47 39 42 45
223 200 157 170 174 154 166 195 207 221 223 199 279 77 101 81 268 196 174 209 239 245 244 260 274 276 271 275 273 254 269 263 239 238 213 119 355 337 151 279 276 269 253 216 195 241 308 261 238 235 226 231 271 258 226 240 260 244 230 227 226 228 237 243 242 240 235 242 285 282 237 150 163 352 58 71 71 76 78 78 83 76 61 47 36 31 36 40
205 154 155 174 176 171 195 216 195 208 230 138 236 143 122 192 227 219 197 202 217 228 226 238 254 254 247 277 294 291 288 270 252 271 226 118 95 311 309 266 244 247 260 248 120 127 255 246 242 238 229 231 259 270 247 231 246 252 245 243 237 228 237 248 256 295 276 272 302 287 255 151 133 100 79 82 76 70 60 54 59 63 52 39 32 29 32 33
188 142 158 180 181 187 216 238 201 183 161 182 215 185 159 224 238 250 227 200 209 227 232 249 248 243 246 254 271 277 298 268 243 268 293 132 132 141 9 340 239 239 267 14 41 229 227 231 236 240 233 215 224 258 245 219 225 240 233 257 296 263 244 242 246 343 288 263 251 258 281 81 106 101 95 95 88 75 58 51 54 52 42 37 36 34 32 32
179 140 159 179 185 207 236 282 281 179 151 184 209 180 179 191 201 287 279 217 244 265 257 258 237 236 263 252 247 257 257 246 248 281 314 239 117 100 66 53 45 41 51 33 355 244 241 281 249 243 241 223 229 262 246 234 259 254 238 34 352 286 265 258 239 227 248 256 256 269 348 71 77 98 112 103 84 72 57 48 51 47 39 38 39 37 35 32
182 151 161 168 184 217 238 262 263 230 170 181 193 198 214 193 145 229 258 227 228 249 258 267 245 230 256 260 252 248 230 211 233 238 245 244 121 96 79 63 53 49 48 22 354 273 235 255 231 242 257 236 191 188 274 313 311 311 315 333 245 262 273 283 254 243 255 266 263 73 90 99 71 40 100 79 60 57 49 39 41 41 36 38 42 42 39 34
214 170 168 165 180 207 216 212 214 212 177 191 190 202 217 204 145 168 221 233 235 240 241 259 257 237 246 262 258 256 251 227 221 228 239 262 310 91 102 95 68 51 29 3 2 320 244 245 241 268 284 279 212 157 127 315 306 325 324 303 291 323 337 282 256 284 339 280 245 105 118 127 102 53 62 62 53 52 48 39 37 37 34 36 41 42 39 34
225 153 157 173 191 184 185 203 187 133 166 199 216 222 201 195 174 167 200 217 201 220 228 232 245 235 230 259 248 234 253 248 223 230 254 269 285 112 97 32 70 67 2 41 36 357 261 276 328 337 316 303 277 197 167 225 258 291 331 328 342 8 29 13 344 14 6 292 241 106 118 116 90 62 56 55 52 55 53 45 41 41 37 34 35 36 35 32
218 165 144 165 201 116 101 113 149 149 174 195 189 201 198 185 180 174 195 209 188 205 230 225 232 227 205 253 260 225 241 261 213 150 299 293 288 299 353 349 18 28 24 86 67 23 299 300 336 356 333 306 286 243 210 226 234 278 16 14 3 9 31 29 11 9 3 11 97 103 101 82 61 57 56 52 56 62 58 47 42 40 35 32 34 34 33 30
231 176 146 168 152 107 103 121 170 160 150 195 185 170 182 175 171 176 183 199 195 210 241 233 231 243 234 261 270 211 149 316 355 96 349 294 259 308 101 179 254 1 17 75 88 56 228 203 58 28 325 309 296 277 241 226 200 120 36 29 22 13 22 29 17 11 8 18 91 122 109 81 59 64 62 55 57 58 52 44 39 36 32 33 36 35 31 28
274 264 204 197 139 126 138 149 181 169 155 203 199 156 182 182 161 179 165 179 209 204 237 250 247 266 256 252 264 189 124 343 306 9 346 314 297 331 328 176 218 300 79 162 167 200 234 238 165 252 274 311 291 265 224 190 171 124 48 29 25 19 22 32 34 27 12 354 338 140 107 89 97 91 75 63 57 52 45 39 35 33 33 35 36 35 32 31
259 223 220 222 149 179 193 149 186 192 134 81 85 150 194 179 142 182 155 218 235 205 194 278 281 268 245 222 209 121 27 320 309 310 306 297 294 292 279 257 266 260 206 195 214 207 248 262 243 254 275 270 268 256 204 193 200 156 46 19 16 22 23 38 50 37 17 4 359 20 53 69 113 108 84 67 55 48 42 35 28 28 32 36 38 36 35 35